When you browse on this site, cookies collect data to enhance your experience and personalize the content and advertising you see.
Visit our Privacy Policy to learn more. By continuing to use the site, you agree to this use of cookies and data.
  • In Lithuania
  • List of Countries
  • For 7 days
  • Water Temperature
  • Satellite Maps
  • Weather Map
  • Weather Widgets
  • user-avatar
    Login

    Hourly Weather Puerto Ayacucho

    Today, 22 March, Friday

    Time Temperature Precipitation Wind Pressure Humidity
    00:00 +29°C° 0.2 mm 2 mps 751 mmHg 73%
    01:00 +28°C° 0 mm 1 mps 751 mmHg 75%
    02:00 +28°C° 0.9 mm 1 mps 751 mmHg 76%
    03:00 +28°C° 0.9 mm 1 mps 751 mmHg 76%
    04:00 +28°C° 0.9 mm 1 mps 751 mmHg 77%
    05:00 +28°C° 0 mm 1 mps 752 mmHg 77%
    06:00 +28°C° 0 mm 1 mps 752 mmHg 76%
    07:00 +28°C° 0 mm 1 mps 752 mmHg 75%
    08:00 +29°C° 0 mm 1 mps 752 mmHg 71%
    09:00 +30°C° 0 mm 1 mps 753 mmHg 67%
    10:00 +31°C° 0 mm 1 mps 753 mmHg 63%
    11:00 +33°C° 0 mm 1 mps 752 mmHg 58%
    12:00 +35°C° 0 mm 1 mps 751 mmHg 52%
    13:00 +36°C° 0 mm 1 mps 750 mmHg 46%
    14:00 +36°C° 0.1 mm 1 mps 750 mmHg 47%
    15:00 +36°C° 0.1 mm 1 mps 749 mmHg 48%
    16:00 +36°C° 0.1 mm 1 mps 749 mmHg 50%
    17:00 +35°C° 0.2 mm 2 mps 749 mmHg 56%
    18:00 +32°C° 0.2 mm 2 mps 750 mmHg 62%
    19:00 +31°C° 0.2 mm 3 mps 750 mmHg 68%
    20:00 +30°C° 0.6 mm 3 mps 751 mmHg 71%
    21:00 +29°C° 0.6 mm 2 mps 752 mmHg 74%
    22:00 +29°C° 0.6 mm 2 mps 752 mmHg 77%
    23:00 +28°C° 1.1 mm 2 mps 752 mmHg 78%

    Tomorrow, 23 March, Saturday

    Time Temperature Precipitation Wind Pressure Humidity
    00:00 +28°C° 1.1 mm 2 mps 752 mmHg 80%
    01:00 +27°C° 1.1 mm 2 mps 752 mmHg 81%
    02:00 +27°C° 1 mm 2 mps 752 mmHg 81%
    03:00 +27°C° 1 mm 1 mps 751 mmHg 82%
    04:00 +27°C° 1 mm 1 mps 751 mmHg 82%
    05:00 +28°C° 0.1 mm 1 mps 752 mmHg 79%
    06:00 +28°C° 0.1 mm 1 mps 752 mmHg 77%
    07:00 +29°C° 0.1 mm 1 mps 753 mmHg 74%
    08:00 +30°C° 0 mm 1 mps 753 mmHg 70%
    09:00 +31°C° 0 mm 1 mps 754 mmHg 65%
    10:00 +32°C° 0 mm 2 mps 754 mmHg 60%
    11:00 +34°C° 0 mm 2 mps 753 mmHg 56%
    12:00 +35°C° 0 mm 2 mps 752 mmHg 52%
    13:00 +36°C° 0 mm 2 mps 751 mmHg 48%
    14:00 +36°C° 0.2 mm 2 mps 750 mmHg 49%
    15:00 +35°C° 0.2 mm 1 mps 750 mmHg 49%
    16:00 +35°C° 0.2 mm 1 mps 749 mmHg 50%
    17:00 +34°C° 0.1 mm 1 mps 750 mmHg 55%
    18:00 +32°C° 0.1 mm 2 mps 751 mmHg 61%
    19:00 +30°C° 0.1 mm 3 mps 751 mmHg 67%
    20:00 +30°C° 0 mm 2 mps 752 mmHg 68%
    21:00 +29°C° 0 mm 2 mps 752 mmHg 70%
    22:00 +29°C° 0 mm 2 mps 753 mmHg 71%
    23:00 +29°C° 0 mm 2 mps 752 mmHg 71%

    Day after tomorrow, 24 March, Sunday

    Time Temperature Precipitation Wind Pressure Humidity
    00:00 +28°C° 0 mm 2 mps 752 mmHg 71%
    01:00 +28°C° 0 mm 1 mps 751 mmHg 70%
    02:00 +28°C° 0 mm 1 mps 751 mmHg 70%
    03:00 +28°C° 0 mm 1 mps 751 mmHg 69%
    04:00 +28°C° 0 mm 1 mps 751 mmHg 69%
    05:00 +28°C° 0 mm 1 mps 752 mmHg 67%
    06:00 +28°C° 0 mm 1 mps 752 mmHg 65%
    07:00 +29°C° 0 mm 1 mps 753 mmHg 64%
    08:00 +31°C° 0 mm 1 mps 753 mmHg 57%
    09:00 +32°C° 0 mm 2 mps 753 mmHg 51%
    10:00 +35°C° 0 mm 2 mps 753 mmHg 44%
    11:00 +36°C° 0 mm 2 mps 752 mmHg 41%
    12:00 +37°C° 0 mm 3 mps 751 mmHg 38%
    13:00 +38°C° 0 mm 3 mps 750 mmHg 36%
    14:00 +38°C° 0 mm 2 mps 749 mmHg 35%
    15:00 +39°C° 0 mm 2 mps 749 mmHg 34%
    16:00 +39°C° 0 mm 2 mps 748 mmHg 34%
    17:00 +37°C° 0 mm 2 mps 749 mmHg 38%
    18:00 +35°C° 0 mm 2 mps 749 mmHg 43%
    19:00 +32°C° 0 mm 2 mps 750 mmHg 48%
    20:00 +31°C° 0 mm 2 mps 750 mmHg 50%
    21:00 +30°C° 0 mm 2 mps 751 mmHg 52%
    22:00 +30°C° 0 mm 2 mps 751 mmHg 53%
    23:00 +29°C° 0 mm 1 mps 751 mmHg 55%

    25 March, Monday

    Time Temperature Precipitation Wind Pressure Humidity
    00:00 +29°C° 0 mm 1 mps 750 mmHg 56%
    01:00 +28°C° 0 mm 1 mps 750 mmHg 58%
    02:00 +28°C° 0 mm 1 mps 750 mmHg 60%
    03:00 +27°C° 0 mm 1 mps 750 mmHg 62%
    04:00 +27°C° 0 mm 1 mps 750 mmHg 64%
    05:00 +28°C° 0 mm 1 mps 750 mmHg 64%
    06:00 +26°C° 0 mm 0 mps 751 mmHg 64%
    07:00 +27°C° 0 mm 0 mps 751 mmHg 64%
    08:00 +30°C° 0 mm 1 mps 751 mmHg 59%
    09:00 +32°C° 0 mm 1 mps 752 mmHg 55%
    10:00 +35°C° 0 mm 2 mps 752 mmHg 51%
    11:00 +36°C° 0 mm 2 mps 751 mmHg 49%
    12:00 +37°C° 0 mm 2 mps 750 mmHg 46%
    13:00 +37°C° 0 mm 2 mps 749 mmHg 43%
    14:00 +36°C° 0.2 mm 1 mps 748 mmHg 43%
    15:00 +36°C° 0.2 mm 1 mps 748 mmHg 44%
    16:00 +36°C° 0.2 mm 1 mps 747 mmHg 44%
    17:00 +35°C° 0.1 mm 2 mps 748 mmHg 52%
    18:00 +32°C° 0.1 mm 2 mps 749 mmHg 60%
    19:00 +31°C° 0.1 mm 3 mps 749 mmHg 68%
    20:00 +30°C° 0 mm 3 mps 750 mmHg 68%
    21:00 +30°C° 0 mm 2 mps 750 mmHg 68%
    22:00 +29°C° 0 mm 1 mps 751 mmHg 68%
    23:00 +29°C° 0 mm 1 mps 751 mmHg 67%

    26 March, Tuesday

    Time Temperature Precipitation Wind Pressure Humidity
    00:00 +29°C° 0 mm 1 mps 750 mmHg 66%
    01:00 +28°C° 0 mm 1 mps 750 mmHg 64%
    02:00 +28°C° 0 mm 1 mps 750 mmHg 64%
    03:00 +28°C° 0 mm 1 mps 749 mmHg 63%
    04:00 +28°C° 0 mm 1 mps 749 mmHg 62%
    05:00 +28°C° 0 mm 1 mps 750 mmHg 62%
    06:00 +29°C° 0 mm 1 mps 751 mmHg 62%
    07:00 +29°C° 0 mm 1 mps 751 mmHg 62%
    08:00 +30°C° 0 mm 1 mps 751 mmHg 57%
    09:00 +32°C° 0 mm 1 mps 751 mmHg 53%
    10:00 +34°C° 0 mm 2 mps 751 mmHg 49%
    11:00 +35°C° 0 mm 2 mps 751 mmHg 46%
    12:00 +36°C° 0 mm 2 mps 750 mmHg 44%
    13:00 +37°C° 0 mm 2 mps 749 mmHg 42%
    14:00 +37°C° 0 mm 2 mps 748 mmHg 43%
    15:00 +36°C° 0 mm 1 mps 748 mmHg 43%
    16:00 +36°C° 0 mm 1 mps 748 mmHg 44%
    17:00 +34°C° 0 mm 1 mps 748 mmHg 50%
    18:00 +32°C° 0 mm 2 mps 749 mmHg 56%
    19:00 +31°C° 0 mm 3 mps 750 mmHg 62%
    20:00 +30°C° 0 mm 2 mps 750 mmHg 63%
    21:00 +30°C° 0 mm 2 mps 750 mmHg 64%
    22:00 +29°C° 0 mm 2 mps 751 mmHg 65%
    23:00 +29°C° 0 mm 2 mps 750 mmHg 64%

    27 March, Wednesday

    Time Temperature Precipitation Wind Pressure Humidity
    00:00 +29°C° 0 mm 2 mps 750 mmHg 63%
    01:00 +29°C° 0 mm 2 mps 750 mmHg 61%
    02:00 +28°C° 0 mm 2 mps 750 mmHg 61%
    03:00 +28°C° 0 mm 1 mps 750 mmHg 60%
    04:00 +28°C° 0 mm 1 mps 750 mmHg 59%
    05:00 +29°C° 0 mm 1 mps 750 mmHg 58%
    06:00 +29°C° 0 mm 1 mps 751 mmHg 58%
    07:00 +30°C° 0 mm 1 mps 752 mmHg 58%
    08:00 +31°C° 0 mm 1 mps 752 mmHg 53%
    09:00 +34°C° 0 mm 2 mps 752 mmHg 48%
    10:00 +36°C° 0 mm 2 mps 752 mmHg 43%
    11:00 +37°C° 0 mm 2 mps 751 mmHg 42%
    12:00 +37°C° 0 mm 2 mps 750 mmHg 40%
    13:00 +38°C° 0 mm 3 mps 749 mmHg 38%
    14:00 +38°C° 0 mm 2 mps 749 mmHg 40%
    15:00 +38°C° 0 mm 2 mps 749 mmHg 41%
    16:00 +37°C° 0 mm 1 mps 748 mmHg 42%
    17:00 +36°C° 0 mm 2 mps 749 mmHg 48%
    18:00 +35°C° 0 mm 2 mps 750 mmHg 53%
    19:00 +33°C° 0 mm 3 mps 750 mmHg 58%
    20:00 +31°C° 0 mm 3 mps 751 mmHg 60%
    21:00 +31°C° 0 mm 3 mps 751 mmHg 62%
    22:00 +30°C° 0 mm 3 mps 751 mmHg 64%
    23:00 +30°C° 0.3 mm 2 mps 751 mmHg 68%
    Show more